Regional Weather Roundup
Issued by NWS

Home | Current Version | Previous Version | Text Only | Print | Product List | Glossary Off
Versions: 1 2 3 4 5 6 7 8 9 10 11 12 13 14 15 16 17 18 19 20 21 22 23 24 25 26 27 28 29 30 31 32 33 34 35 36 37 38 39 40 41 42 43 44 45 46 47 48 49 50

000
ASUS43 KIND 230109
RWRIN

WEATHER ROUNDUP FOR INDIANA
NATIONAL WEATHER SERVICE INDIANAPOLIS IN
900 PM EDT TUE JUL 22 2014

NOTE: "FAIR" INDICATES FEW OR NO CLOUDS BELOW 12,000 FEET WITH NO
SIGNIFICANT WEATHER AND/OR OBSTRUCTIONS TO VISIBILITY.

* - STATION DOES NOT REPORT WEATHER SUCH AS PRECIPITATION OR FOG.

+ - STATION NOT QUALITY CONTROLLED BY THE NATIONAL WEATHER SERVICE.
    USE DATA WITH CAUTION...ESPECIALLY DEWPOINT AND RELATIVE
    HUMIDITY OBSERVATIONS.

INZ001>003-010>013-019-020-230200-
NORTHWEST INDIANA

CITY           SKY/WX    TMP DP  RH WIND       PRES   REMARKS
GARY /AIRPORT/ CLOUDY    84  73  70 SW8       29.96S
KNOX *+        PTCLDY    81  69  67 SW6       29.98S
LA PORTE +     PTCLDY    80  70  71 SW6       29.99S
MICHIGAN CITY+ CLOUDY    81  70  69 S8        29.97S
MONTICELLO +   CLEAR     79  71  76 SW6       30.00F
RENSSELAER +   CLEAR     79  72  78 S8        29.98F
VALPARAISO     CLEAR     81  71  71 SW9       29.98F

$$

LMZ046-743>745-230200-
SOUTHERN LAKE MICHIGAN

STATION/POSITION TIME  TEMP WIND        PRES
                       AIR  DIR/SP/G
                 (UTC) (F)  (DEG/KT/KT) (MB)
MICHIGAN CITY    0100   82  190/ 13/ 17   N/A

$$

INZ004-005-014>016-021>024-230200-
NORTH CENTRAL INDIANA

CITY           SKY/WX    TMP DP  RH WIND       PRES   REMARKS
ELKHART        CLOUDY    82  66  57 SW8       29.98F
GOSHEN         CLEAR     82  69  64 SW7       29.98F
LOGANSPORT +   PTCLDY    77  68  73 SW5       30.02F
PERU/GRISSOM   PTCLDY    80  73  78 SW7       30.01F
ROCHESTER +    PTCLDY    82  68  61 SW9       30.00F
SOUTH BEND     MOCLDY    83  69  62 SW12      29.97F
WARSAW +       PTCLDY    81  70  69 SW5       30.00F

$$

INZ006>009-017-018-025>027-230200-
NORTHEAST INDIANA

CITY           SKY/WX    TMP DP  RH WIND       PRES   REMARKS
ANGOLA *+      CLEAR     81  68  65 SW7       30.00S
AUBURN +       PTCLDY    81  63  54 SW5       30.01S
FORT WAYNE     MOCLDY    82  65  56 SW9       30.02R
HUNTINGTON +   PTCLDY    80  68  65 W8        30.01F

$$

INZ028-029-035-036-043>045-051>053-230200-
WEST CENTRAL INDIANA

CITY           SKY/WX    TMP DP  RH WIND       PRES   REMARKS
GREENCASTLE +  CLEAR     79  70  73 CALM      30.06S
LAFAYETTE      CLEAR     80  71  74 S6        29.99F
TERRE HAUTE    CLEAR     81  70  69 W5        30.04S

$$

INZ030>032-037>040-046>048-054>057-064-065-230200-
CENTRAL INDIANA

CITY           SKY/WX    TMP DP  RH WIND       PRES   REMARKS
CP ATTERBURY + CLEAR     77  70  78 CALM      30.05R
COLUMBUS       CLEAR     77  70  78 CALM      30.03R
GREENWOOD *+   CLEAR     82  70  65 W6        30.05
INDIANAPOLIS   PTCLDY    81  67  62 W9        30.04R
-EAGLE CREEK   PTCLDY    82  67  60 SW3       30.04R
KOKOMO *+      PTCLDY    81  70  69 SW8       30.02F
MARION +       CLEAR     77  67  71 W6        30.04S
MT COMFORT *+  PTCLDY    81  68  65 W9        30.06R
SHELBYVILLE    CLEAR     80  69  69 W6        30.04R
ZIONSVILLE +   PTCLDY    80  67  63 W5        30.06S

$$

INZ033-034-041-042-049-050-058-059-230200-
EAST CENTRAL INDIANA

CITY           SKY/WX    TMP DP  RH WIND       PRES   REMARKS
MUNCIE         PTCLDY    82  64  54 W8        30.04R

$$

INZ060-061-067>069-081>083-085>088-230200-
SOUTHWEST INDIANA

CITY           SKY/WX    TMP DP  RH WIND       PRES   REMARKS
EVANSVILLE     CLEAR     86  68  54 W3        30.03R
HUNTINGBURG *+ CLEAR     82  70  65 NW3       30.03S
WASHINGTON +   CLEAR     78  70  75 W6        30.04R

$$

INZ062-063-066-070>080-084-089>092-230200-
SOUTH CENTRAL AND SOUTHEAST INDIANA

CITY           SKY/WX    TMP DP  RH WIND       PRES   REMARKS
BLOOMINGTON    CLEAR     78  71  79 NW3       30.06R

$$




USA.gov is the U.S. government's official web portal to all federal, state and local government web resources and services.